FENGYUN 1C DEB, 31903

Orbit data source: Space-Track

FENGYUN 1C DEB, 31903 is space debris in SSO originally from a launch on Mon, 10 May 1999 UTC launched from the Taiyaun Space Center, China (TSC). Fengyun 1C debris stems from the Chinese weather satellite Fengyun-1C, which was intentionally destroyed by a Chinese anti-satellite missile in 2007. This event dramatically increased the amount of space debris, with thousands of trackable fragments posing hazards to satellites and human spaceflight. The Fengyun 1C debris cloud has become a focal point in discussions about space sustainability and the need for international regulations to prevent the creation of new debris.

Loading next visibility...
Identifier
31903, 1999-025CLE
Orbit
SSO
Country
Flag of CNCN / PRC
Related business
Manufacturer
Unknown
Mission
Spacecraft
Bus & Motor
Unknown
Mass
Unknown
Launch date (UTC)
1999-05-10 (27 years ago)
Launch vehicle
Unknown
Launch site
Taiyaun Space Center, China (TSC)
Object type
Payload
Rocket body
Debris
Shape & HBR
Unknown shape, 0.1 m
Radar Cross Section
Small (<0.1 m²)

Expand to show TLE details & history
Last TLE update: 2 days ago

TLE from 2 days ago
0 FENGYUN 1C DEB
1 31903U 99025CLE 26144.98860781  .00001451  00000-0  27279-3 0  9996
2 31903  99.2775 158.1023 0125530 261.1592  97.5374 14.61675594997793
Epoch: 2026-05-24T23:43Z
TLE epoch observation values (Epoch: 2026-05-24T23:43:35.714Z)
Latitude
-0.00013°
Longitude
-80.37934°
Altitude
703.45 km
Speed
7.497 km/s
True Right ascension
10h 32m 24s
True Declination
0° 00' 00"
Sunlit
Object was in daylight at epoch
Visualization orbit readout
Latitude
Unknown
Longitude
Unknown
Altitude
Unknown
Speed
Unknown
Apparent Right ascension
Unknown
Apparent Declination
Unknown
Sunlit
N/A
Visualization observer readout
Local Sidereal Time
21:31:11
Azimuth
Unknown
Elevation
Unknown
Doppler factor
Unknown
Orbital elements
Apogee altitude
773.562 km
Perigee altitude
596.238 km
Semi-major axis
7,063.037 km
Eccentricity
0.01255
Inclination
99.2775°
RAAN
158.1023°
Arg. of periapsis
261.1592°
True anomaly
98.96036°
Mean anomaly
97.5374°
Eccentric anomaly
98.24919°
Mean motion
3.65642 °/min
Orbital period
98.46 mins
BSTAR
0.00027279
Loading maneuver chart data...
Computing Atmospheric mass density...
Loading historical data...
Loading historical data...
Loading historical data...
Loading historical data...
Loading historical data...
Loading historical data...
Loading historical data...

Documentation

Showing up to 5 results
|